Aurora, NE

3:58 AM CDT on June 25, 2017 (GMT -0500)
Aurora Municipal

Weather History for KAUH - December, 2012

Change the Weather History Date:

Wednesday, December 5, 2012

  Actual Average Record
Temperature  
Mean Temperature 46 °F -  
Max Temperature 61 °F 41 °F 64 °F (1965)
Min Temperature 32 °F 21 °F -7 °F (2005)
Degree Days  
Heating Degree Days 18    
Moisture  
Dew Point 16 °F    
Average Humidity 33    
Maximum Humidity 57    
Minimum Humidity 15    
Precipitation  
Precipitation 0.00 in - - ()
Sea Level Pressure  
Sea Level Pressure 30.06 in    
Wind  
Wind Speed 12 mph (South)    
Max Wind Speed 28 mph    
Max Gust Speed 36 mph    
Visibility 10 miles    
Events      
Averages and records for this station are not official NWS values.
T = Trace of Precipitation, MM = Missing Value Source: NWS Daily Summary

Daily Weather History Graph

Daily Weather History Graph

Search for Another Location

Airport or City:

Trip Planner

Search our weather history database for the weather conditions in past years. The results will help you decide how hot, cold, wet, or windy it might be!

Date:

Astronomy

Dec. 05, 2012 Rise Set
Actual Time 7:41 AM CST 5:03 PM CST
Civil Twilight 7:10 AM CST 5:34 PM CST
Nautical Twilight 6:36 AM CST 6:08 PM CST
Astronomical Twilight 6:03 AM CST 6:42 PM CST
Moon 11:57 PM CST (12/5) 12:03 PM CST (12/5)
Length of Visible Light 10h 23m
Length of Day
9h 22m
Waning Gibbous, 59% of the Moon is Illuminated
Dec 5
Waning Gibbous
Dec 6
Last Quarter
Dec 13
New
Dec 19
First Quarter
Dec 28
Full

Hourly Weather History & Observations

Time (CST) Temp. Windchill Dew Point Humidity Pressure Visibility Wind Dir Wind Speed Gust Speed Precip Events Conditions
12:15 AM 35.4 °F 32.6 °F 16.7 °F 47% 30.25 in 10.0 mi South 3.5 mph - N/A   Clear
12:35 AM 33.8 °F 28.6 °F 17.2 °F 51% 30.25 in 10.0 mi South 5.8 mph - N/A   Clear
12:55 AM 36.5 °F 32.7 °F 17.6 °F 46% 30.24 in 10.0 mi South 4.6 mph - N/A   Clear
1:15 AM 37.6 °F 33.1 °F 17.6 °F 44% 30.24 in 10.0 mi South 5.8 mph - N/A   Clear
1:55 AM 40.1 °F 34.7 °F 16.7 °F 39% 30.23 in 10.0 mi South 8.1 mph - N/A   Clear
2:15 AM 40.3 °F 33.9 °F 16.0 °F 37% 30.23 in 10.0 mi South 10.4 mph - N/A   Clear
2:35 AM 38.8 °F 34.6 °F 16.5 °F 40% 30.23 in 10.0 mi South 5.8 mph - N/A   Clear
2:55 AM 36.5 °F 29.2 °F 17.4 °F 46% 30.23 in 10.0 mi South 10.4 mph - N/A   Clear
3:15 AM 38.5 °F 32.1 °F 15.8 °F 40% 30.23 in 10.0 mi South 9.2 mph - N/A   Clear
3:35 AM 34.2 °F 27.5 °F 17.6 °F 51% 30.22 in 10.0 mi SSE 8.1 mph - N/A   Clear
4:15 AM 32.7 °F 25.7 °F 18.0 °F 55% 30.20 in 10.0 mi SSE 8.1 mph - N/A   Clear
4:35 AM 33.4 °F 25.9 °F 17.6 °F 52% 30.20 in 10.0 mi South 9.2 mph - N/A   Clear
4:55 AM 35.6 °F 28.6 °F 17.6 °F 48% 30.19 in 10.0 mi South 9.2 mph - N/A   Clear
5:15 AM 37.8 °F 30.7 °F 17.1 °F 43% 30.18 in 10.0 mi South 10.4 mph - N/A   Clear
5:35 AM 35.6 °F 28.0 °F 17.6 °F 48% 30.18 in 10.0 mi South 10.4 mph - N/A   Clear
5:55 AM 34.0 °F 26.6 °F 18.3 °F 53% 30.18 in 10.0 mi SSE 9.2 mph - N/A   Clear
6:15 AM 32.4 °F 24.6 °F 18.5 °F 57% 30.17 in 10.0 mi SSE 9.2 mph - N/A   Clear
6:35 AM 35.1 °F 26.9 °F 17.6 °F 49% 30.16 in 10.0 mi South 11.5 mph - N/A   Clear
6:55 AM 35.6 °F 28.6 °F 17.6 °F 48% 30.16 in 10.0 mi South 9.2 mph - N/A   Clear
8:35 AM 36.7 °F 28.9 °F 17.6 °F 46% 30.14 in 10.0 mi South 11.5 mph 16.1 mph N/A   Clear
8:55 AM 38.8 °F 31.2 °F 17.4 °F 42% 30.13 in 10.0 mi South 12.7 mph 18.4 mph N/A   Clear
9:15 AM 40.1 °F 32.7 °F 17.6 °F 40% 30.13 in 10.0 mi South 12.7 mph - N/A   Clear
9:35 AM 42.6 °F 35.6 °F 17.1 °F 36% 30.14 in 10.0 mi South 13.8 mph 18.4 mph N/A   Clear
9:55 AM 43.0 °F 35.7 °F 17.4 °F 36% 30.13 in 10.0 mi South 15.0 mph 20.7 mph N/A   Clear
10:15 AM 44.2 °F 37.0 °F 17.2 °F 34% 30.13 in 10.0 mi South 16.1 mph 21.9 mph N/A   Clear
10:35 AM 45.0 °F 37.6 °F 17.2 °F 33% 30.11 in 10.0 mi South 17.3 mph 24.2 mph N/A   Clear
10:55 AM 45.7 °F 39.1 °F 17.6 °F 33% 30.10 in 10.0 mi South 15.0 mph 21.9 mph N/A   Clear
11:15 AM 47.5 °F - 16.5 °F 29% 30.09 in 10.0 mi South 16.1 mph 29.9 mph N/A   Clear
11:35 AM 48.6 °F - 17.2 °F 29% 30.07 in 10.0 mi South 13.8 mph 21.9 mph N/A   Clear
11:55 AM 51.8 °F - 15.8 °F 24% 30.05 in 10.0 mi South 23.0 mph 29.9 mph N/A   Clear
12:15 PM 53.6 °F - 15.4 °F 22% 30.03 in 10.0 mi South 17.3 mph 31.1 mph N/A   Clear
12:35 PM 55.8 °F - 14.0 °F 19% 30.01 in 10.0 mi SSW 26.5 mph 33.4 mph N/A   Clear
12:55 PM 57.9 °F - 13.3 °F 17% 30.00 in 10.0 mi South 23.0 mph 29.9 mph N/A   Clear
1:15 PM 57.4 °F - 13.8 °F 18% 29.99 in 10.0 mi South 21.9 mph 35.7 mph N/A   Clear
1:35 PM 59.7 °F - 12.7 °F 16% 29.97 in 10.0 mi South 26.5 mph 32.2 mph N/A   Clear
1:55 PM 59.5 °F - 13.8 °F 17% 29.95 in 10.0 mi South 19.6 mph 34.5 mph N/A   Clear
2:15 PM 59.0 °F - 15.1 °F 18% 29.94 in 7.0 mi South 21.9 mph 29.9 mph N/A   Clear
2:35 PM 60.1 °F - 12.0 °F 15% 29.93 in 10.0 mi South 27.6 mph 35.7 mph N/A   Clear
2:55 PM 61.2 °F - 12.2 °F 15% 29.92 in 10.0 mi South 21.9 mph 34.5 mph N/A   Clear
3:15 PM 60.1 °F - 11.7 °F 15% 29.90 in 10.0 mi SSW 25.3 mph 33.4 mph N/A   Clear
3:35 PM 60.4 °F - 11.7 °F 15% 29.90 in 10.0 mi SSW 25.3 mph 31.1 mph N/A   Clear
3:55 PM 60.1 °F - 11.7 °F 15% 29.89 in 10.0 mi South 25.3 mph 33.4 mph N/A   Clear
4:15 PM 58.6 °F - 13.3 °F 17% 29.90 in 10.0 mi South 13.8 mph 26.5 mph N/A   Clear
4:35 PM 58.1 °F - 14.2 °F 18% 29.89 in 10.0 mi South 15.0 mph 24.2 mph N/A   Clear
4:55 PM 56.5 °F - 14.9 °F 19% 29.88 in 10.0 mi South 17.3 mph 23.0 mph N/A   Clear
5:15 PM 55.6 °F - 15.3 °F 20% 29.88 in 10.0 mi South 16.1 mph 26.5 mph N/A   Clear
5:35 PM 53.8 °F - 15.4 °F 22% 29.88 in 10.0 mi South 16.1 mph - N/A   Clear
5:55 PM 52.2 °F - 16.7 °F 25% 29.89 in 10.0 mi South 15.0 mph 19.6 mph N/A   Clear
6:15 PM 51.4 °F - 18.1 °F 27% 29.88 in 10.0 mi South 15.0 mph - N/A   Clear
6:35 PM 50.9 °F - 18.1 °F 27% 29.87 in 10.0 mi South 16.1 mph - N/A   Clear
6:55 PM 50.4 °F - 17.6 °F 27% 29.87 in 10.0 mi South 17.3 mph 23.0 mph N/A   Clear
7:15 PM 50.2 °F - 16.7 °F 27% 29.86 in 10.0 mi South 18.4 mph 24.2 mph N/A   Clear
7:35 PM 50.4 °F - 15.8 °F 25% 29.87 in 10.0 mi South 15.0 mph 25.3 mph N/A   Clear
7:55 PM 51.1 °F - 16.2 °F 25% 29.87 in 10.0 mi South 17.3 mph 24.2 mph N/A   Clear